This demonstration page uses our WeatherBlox Daily Observations layout. Learn more.

Left ArrowRight Arrow

41.86663, -103.66717

Hourly Observations for March 2, 2020

Temp ( °F °C ) Dew Point ( °F °C ) Humidity (%) Winds ( mph kmh ) Pressure ( in mb ) Visibility ( mi km ) Precip ( " mm )
12:53 am 00:53 Cloudy 26 -3.3 25 -3.9 96 96 NNW 3 6 30.03 1017 10 16 N/A
1:53 am 01:53 Cloudy 27 -2.8 26 -3.3 96 96 N N/A 30.01 1016 9 14 N/A
2:53 am 02:53 Cloudy 27 -2.8 25 -3.9 92 92 NW 3 6 29.97 1015 10 16 N/A
3:46 am 03:46 Cloudy 26 -3.3 24 -4.4 92 92 NW 3 6 30.04 1017 10 16 N/A
3:53 am 03:53 Mostly Cloudy 24 -4.4 23 -5 96 96 NNW 6 9 29.95 1014 10 16 N/A
4:53 am 04:53 Clear with Mist and Fog 22 -5.6 21 -6.1 96 96 N N/A 29.94 1014 3 5 N/A
4:55 am 04:55 Clear with Mist and Fog 21 -6.1 21 -6.1 100 100 NW 3 6 30.06 1018 2 3 N/A
5:06 am 05:06 Clear with Mist and Fog 19 -7.2 18 -7.8 96 96 NW 5 7 30.09 1019 3 5 N/A
5:53 am 05:53 Mostly Cloudy 19 -7.2 17 -8.3 92 92 NNW 6 9 29.94 1014 10 16 N/A
6:53 am 06:53 Sunny 18 -7.8 17 -8.3 96 96 N N/A 29.90 1013 10 16 N/A
7:53 am 07:53 Sunny 25 -3.9 22 -5.6 88 88 NNW 3 6 29.87 1012 10 16 N/A
8:53 am 08:53 Sunny 32 undefined 25 -3.9 75 75 W 5 7 29.82 1010 10 16 N/A
9:53 am 09:53 Sunny 37 2.8 25 -3.9 62 62 W 16 26 29.80 1009 10 16 N/A
10:53 am 10:53 Sunny 41 5 22 -5.6 47 47 W 30 48 29.75 1007 10 16 N/A
11:53 am 11:53 Sunny 45 7.2 19 -7.2 35 35 W 24 39 29.71 1006 10 16 N/A
12:53 pm 12:53 Sunny 44 6.7 15 -9.4 31 31 W 23 37 29.72 1006 10 16 N/A
1:53 pm 13:53 Sunny 44 6.7 14 -10 30 30 WNW 25 41 29.70 1006 10 16 N/A
2:53 pm 14:53 Mostly Cloudy 45 7.2 14 -10 29 29 W 25 41 29.69 1005 10 16 N/A
3:53 pm 15:53 Sunny 45 7.2 14 -10 29 29 W 22 35 29.71 1006 10 16 N/A
4:53 pm 16:53 Sunny 44 6.7 16 -8.9 32 32 W 25 41 29.73 1007 10 16 N/A
5:53 pm 17:53 Clear 40 4.4 17 -8.3 40 40 W 23 37 29.78 1009 10 16 N/A
6:53 pm 18:53 Clear 37 2.8 17 -8.3 44 44 WNW 13 20 29.83 1010 10 16 N/A
7:53 pm 19:53 Clear 36 2.2 17 -8.3 46 46 W 16 26 29.83 1010 10 16 N/A
8:53 pm 20:53 Clear 35 1.7 16 -8.9 46 46 WNW 16 26 29.85 1011 10 16 N/A
9:53 pm 21:53 Partly Cloudy 30 -1.1 16 -8.9 56 56 NW 9 15 29.87 1012 10 16 N/A
10:53 pm 22:53 Mostly Clear 29 -1.7 17 -8.3 61 61 WNW 8 13 29.87 1012 10 16 N/A
11:53 pm 23:53 Mostly Clear 26 -3.3 16 -8.9 66 66 NW 3 6 29.87 1012 10 16 N/A

Powered by AerisWeather